Погода в Гвасюги

Погода в Гвасюги : погода сейчас, прогноз погоды и архив. Всё, что Вы хотите узнать о погоде в Гвасюги!

Поиск расширенной информации на нашем сайте:

Другие новости

Новости СМИ2

Главная страница сайта

Новости сайта

03.07.2017

Напоминаем, что на нашем специализированном сайте Метеоцентр.Азия вы можете получить высокодетализированные автоматические прогнозы погоды по пунктам России, СНГ и мира в авиационном формате (включающие направление и скорость ветра, видимость, явления погоды, количество и форму облачности, нижнюю и верхнюю границу облачности).


Погода в Гвасюги - сегодня

Время (UTC), дата Ветер
(°,м/с) 
Видим.   Явления Облачность Т
(°С)
Тd
(°С)
f(%) Тe
(°С)
Pmin
(гПа)
dP
(гПа)
Po
(мм)
O2
(г/м3)
Тmin Tmax R s Состояние
почвы
18 20.11.17 230 (ЮЗ) 20000 м    ясно 
-27.3 -30.5 74 -28  1022.2  2.2  748  337           
21 20.11.17 360 (С) 20000 м    4/0 верхняя 
[Ci fib]
-27.9 -31 75 -29  1024.2  1.8  749  338  -28.2      19  равномерный
сухой снег
100% 
00 21.11.17 тихо ()   20000 м    8/0 средняя, верхняя 
[Ac lent|Ci]
-21.8 -24.3 80 -22  1024.5  0.9  750  330           
03 21.11.17 180 (Ю) 20000 м    10/0 средняя, верхняя 
[Ac trans|Cs]
-12.2 -20.5 50 -16  1021.8  -1.8  749  317           
06 21.11.17 200 (Ю) 20000 м    10/3 600 м средняя, верхняя 
[Sc|Ac trans|Cs]
-9.9 -18.5 49 -12  1020  -1.5  747  314           
09 21.11.17 360 (С) 20000 м    4/0 средняя, верхняя 
[Ac trans|Ci sp]
-16.6 -17.9 90 -17  1019.5  -1  747  322    -9.1       
12 21.11.17 340 (С) 20000 м    6/3 600 м верхняя 
[Sc|Ci fib]
-17.2 -19.1 85 -17  1019.2  -0.4  746  322           
15 21.11.17 340 (С) 20000 м    10/10 600 м 
[Sc]
-15.8 -17.7 85 -16  1016.5  -2.6  744  320           
18 21.11.17 360 (С) 10 км  слаб. ливневой снег  10/10 600 м кучево-дожд. 
[Cb cap]
-13.1 -15.8 80 -15  1012.6  -3.5  742  315           
21 21.11.17 360 (С) 10 км  слаб. ливневой снег  10/10 600 м кучево-дожд. 
[Cb cap]
-12.2 -13.5 90 -12  1009  -3.4  739  313  -21.2    0.8  19  равномерный
сухой снег
100% 
00 22.11.17 050 (СВ) 20000 м  в посл. час ливневой снег  10/8 600 м кучево-дожд., средняя 
[Cb cap|As op]
-10.2 -12.2 85 -10  1006.3  -2.5  737  310           
03 22.11.17 тихо ()   1000 м  ливневой снег  10/10 600 м кучево-дожд. 
[Cb cap]
-6.8 -8.8 86 -7  1004  -2  736  305           
06 22.11.17 250 (З) 1000 м  ливневой снег  10/10 600 м кучево-дожд. 
[Cb cap]
-3.2 -4.3 92 -5  1005.5  1.8  737  301           
09 22.11.17 230 (ЮЗ) 10 км  слаб. ливневой снег  10/10 600 м кучево-дожд. 
[Cb cap]
-5.6 -9.8 72 -7  1008.2  2.5  739  305    -2.7     
12 22.11.17 200 (Ю) 10 км  слаб. ливневой снег  6/6 600 м кучево-дожд. 
[Cb cap]
-7.9 -9.3 90 -8  1008.9  0.5  739  308           
15 22.11.17 180 (Ю) 20000 м  в посл. час ливневой снег  9/9 600 м кучево-дожд. 
[Cb cap]
-9.1 -11.6 82 -11  1009.9  0.9  740  310           
18 22.11.17 180 (Ю) 20000 м  {ливн. осадки}  10/10 600 м кучево-дожд. 
[Cb cap]
-9.5 -12.5 79 -11  1010.1  0.2  740  310           
21 22.11.17 230 (ЮЗ) 20000 м    10/6 600 м кучево-дожд., верхняя 
[Cb cap|Ci sp]
-10.2 -13.8 75 -10  1010.2  740  311  -10.4    0.8  28  равномерный
сухой снег
100% 
00 23.11.17 230 (ЮЗ) 10 км  слаб. ливневой снег  10/10 600 м кучево-дожд. 
[Cb cap]
-9.9 -12.5 81 -10  1010.2  740  311  -10.8         
03 23.11.17 270 (З) 10 км  слаб. ливневой снег  10/10 600 м кучево-дожд. 
[Cb cap]
-8.4 -12.6 72 -8  1008.6  -1.5  739  308           
06 23.11.17 250 (З) 20000 м  {ливн. осадки}  10/6 600 м кучево-дожд., средняя 
[Cb cap|As op]
-8.4 -13.1 69 -8  1009.1  0.5  740  309           
09 23.11.17 тихо ()   20000 м    6/3 600 м верхняя 
[Sc|Ci fib]
-13.9 -15.2 90 -14  1011.2  1.5  741  316    -8.2  0.5     
12 23.11.17 тихо ()   10 км  слаб. снег  10/4 600 м верхняя 
[Sc|Cs]
-13.3 -14.6 90 -13  1011.5  0.4  741  315           
15 23.11.17 тихо ()   10 км  слаб. снег  10/3 600 м средняя, верхняя 
[Sc|Ac lent|Cs]
-17.5 -19.4 85 -18  1011.5  -0.4  741  320           
18 23.11.17 320 (СЗ) 10 км  слаб. снег  10/0 верхняя 
[Cs]
-19.1 -21 85 -19  1011.8  0.1  741  322           
Время (UTC), дата Ветер
(°,м/с) 
Видим.   Явления Облачность Т
(°С)
Тd
(°С)
f(%) Тe
(°С)
Pmin
(гПа)
dP
(гПа)
Po
(мм)
O2
(г/м3)
Тmin Tmax R s Состояние
почвы

Для получения пояснительной информации подведите курсор к названию столбца.

ПОГОДА в Гвасюги - архив

Всё, что Вы хотите узнать о погоде в Гвасюги - удобно и подробно!

Выберите нужную дату (начиная с 1 января 2015* года) и нажмите кнопку "Найти".
Будут отображены архивные сводки погоды по пункту Гвасюги, начиная с указанной даты.


Отображать данные в формате CSV (для использования в таблицах Excel)


Внимание! Наш архив погоды предназначен исключительно для личного некоммерческого использования в познавательных целях. Если Вам необходимы официальные справки о состоянии погоды (для производственных, юридических, коммерческих и т.п. целей), обращайтесь в органы Росгидромета.

*Примечание: данная дата относится к архиву по метеостанциям СССР (Россия, СНГ, Балтия).
Архив по метеостанциям Зарубежной Европы и Азии (кроме Китая) хранится 10 дней, по другим регионам земного шара (Китай, Африка, Америка, Австралия, Океания) - 1 день.

Гвасюги - район местоположения метеостанции


Название, широта, долгота, высота метеостанции:
Гвасюги 47.7°ш. 136.2°д. 180 м над ур. моря [Российская Федерация]

Дополнительная информация

В oтличие oт бoльшинства пoгoдных сайтoв мы публикуем пoдрoбную метеoинфoрмацию в детальнoм прoфессиoнальнoм фoрмате.

Характеристики температуры и влажнoсти вoздуха измеряются на высoте 2 м в тени вдали oт зданий и деревьев.
Скoрoсть ветра измеряется на высoте 10 м (на урoвне рoста челoвека скoрoсть ветра ниже в 1.5-2 раза). Если метеoстанция нахoдится в гoрoде или в лесу, тo скoрoсть ветра занижена на 2-4 м/с пo сравнению с oткрытым местoм. Скoрoсть ветра над акватoриями крупных рек и oзёр, а также на вершинах хoлмoв на 2-5 м/с выше, чем в oбычных услoвиях.
Атмoсфернoе давление в разных тoчках местнoсти мoжет значительнo oтличаться oт давления на метеoстанции, в зависимoсти oт услoвий рельефа (при пoдъёме на 10 м давление пoнижается примернo на 1 мм рт.ст.).